Home   Weather   Saint Helier   Past weeks
Flag for Jersey

Past Weather in Saint Helier, Jersey — Yesterday and Last 2 Weeks

Now
70 °F

Passing clouds.


Feels Like: 70 °F
Forecast: 68 / 58 °F
Wind: 5 mph from North

Location: Jersey Airport

Current Time: Aug 21, 2019 at 5:40:11 pm

Latest Report: Aug 21, 2019 at 4:50 pm


Visibility: N/A

Pressure: 30.30 "Hg

Humidity: 46%

Dew Point: 48 °F

Location of Saint HelierLocation

Past Weather in Saint Helier — Graph

°F

Saint Helier Temperature Yesterday

Maximum temperature yesterday: 66 °F (at 11:20 am)
Minimum temperature yesterday: 55 °F (at 9:20 pm)
Average temperature yesterday: 61 °F

High & Low Weather Summary for the Past Weeks

 TemperatureHumidityPressure
High73 °F (Aug 9, 2:20 pm)100% (Aug 8, 4:20 am)30.36 "Hg (Aug 8, 4:20 am)
Low54 °F (Aug 12, 2:20 am)43% (Aug 21, 12:20 pm)29.59 "Hg (Aug 9, 4:20 am)
Average63 °F84%29.95 "Hg
* Reported Aug 6 4:20 pm — Aug 21 4:20 pm, Saint Helier. Weather by CustomWeather, © 2019

Note: Actual official high and low records may vary slightly from our data, if they occured in-between our weather recording intervals... More about our weather records

Advertising

Saint Helier Weather History for the Previous 24 Hours

Scroll right to see more
 ConditionsComfort  
Time TempWeatherWind HumidityBarometerVisibility
4:20 pm
Wed, Aug 21
70 °FPassing clouds.6 mph57%30.30 "HgN/A
3:50 pm68 °FPassing clouds.7 mph56%30.33 "HgN/A
3:20 pm68 °FPassing clouds.7 mph60%30.33 "HgN/A
2:50 pm68 °FPassing clouds.6 mph64%30.33 "HgN/A
2:20 pm68 °FPassing clouds.7 mph64%30.33 "HgN/A
1:50 pm68 °FPassing clouds.7 mph56%30.33 "HgN/A
1:20 pm68 °FPassing clouds.7 mph53%30.33 "HgN/A
12:50 pm70 °FPassing clouds.6 mph46%30.33 "HgN/A
12:20 pm68 °FPassing clouds.7 mph43%30.33 "HgN/A
11:50 am68 °FPassing clouds.5 mph53%30.33 "HgN/A
11:20 am66 °FPassing clouds.6 mph60%30.36 "HgN/A
10:50 am64 °FPassing clouds.8 mph64%30.36 "HgN/A
10:20 am64 °FPassing clouds.8 mph73%30.36 "HgN/A
9:50 am63 °FPassing clouds.9 mph77%30.36 "HgN/A
9:20 am61 °FPassing clouds.7 mph83%30.36 "HgN/A
8:50 am61 °FPassing clouds.6 mph83%30.36 "HgN/A
8:20 am59 °FPassing clouds.5 mph88%30.36 "HgN/A
7:50 am59 °FPassing clouds.5 mph82%30.36 "HgN/A
6:20 am54 °FFog.2 mph88%30.36 "HgN/A
5:50 am54 °FFog.2 mph88%30.33 "HgN/A
5:20 am55 °FCool.1 mph88%30.33 "HgN/A
4:50 am55 °FCool.1 mph88%30.36 "HgN/A
4:20 am55 °FCool.1 mph88%30.36 "HgN/A
3:50 am54 °FCool.1 mph94%30.36 "HgN/A
3:20 am55 °FCool.1 mph88%30.33 "HgN/A
2:50 am55 °FCool.1 mph88%30.36 "HgN/A
2:20 am55 °FCool.3 mph88%30.33 "HgN/A
1:50 am54 °FCool.5 mph94%30.36 "HgN/A
1:20 am54 °FCool.5 mph94%30.36 "HgN/A
12:50 am55 °FCool.5 mph88%30.36 "HgN/A
12:20 am55 °FCool.6 mph88%30.36 "HgN/A
11:50 pm
Tue, Aug 20
55 °FCool.5 mph88%30.36 "HgN/A
11:20 pm55 °FCool.5 mph88%30.36 "HgN/A
10:50 pm55 °FCool.5 mph82%30.36 "HgN/A
10:20 pm55 °FCool.3 mph82%30.36 "HgN/A
9:50 pm55 °FCool.5 mph82%30.36 "HgN/A
9:20 pm55 °FClear.3 mph82%30.36 "Hg10 mi
8:50 pm57 °FClear.5 mph77%30.36 "Hg10 mi
8:20 pm59 °FClear.5 mph72%30.33 "Hg10 mi
7:50 pm61 °FPassing clouds.5 mph72%30.33 "HgN/A
7:20 pm63 °FSunny.8 mph68%30.33 "Hg10 mi
6:50 pm63 °FSunny.9 mph68%30.33 "Hg10 mi
6:20 pm63 °FPassing clouds.10 mph73%30.33 "HgN/A
5:50 pm64 °FPassing clouds.10 mph68%30.33 "HgN/A
5:20 pm64 °FPassing clouds.10 mph68%30.33 "HgN/A
Weather by CustomWeather, © 2019

See weather overview